Location: Aytr�
(46.1357°N, 1.1145°W)
Time: 17:47:39
(UTC+00:00)

USA 186 - Pass Details

Date: 03 March 2021
Orbit: 261 x 429 km, 96.9° (Epoch: 15 April)

Event Time Altitude Azimuth Distance (km) Brightness Sun altitude
Exits shadow 19:59:54 15° 326° (NW) 905 4.0 -22.5°
Drops below altitude 10° 20:00:32 10° 333° (NNW) 1,162 4.5 -22.6°
Sets 20:02:32 0° 342° (NNW) 2,022 5.7 -22.9°
